Location: Cutler
(25.6150°N, 80.3110°W)
Time: 02:59:51
(UTC-05:00)

Hubble Space Telescope - Pass Details

Date: 13 November 2017
Orbit: 537 x 541 km, 28.5° (Epoch: 24 November)

Event Time Altitude Azimuth Distance (km) Brightness Sun altitude
Exits shadow 05:14:03 - 207° (SSW) 2,201 3.7 -19.0°
Reaches altitude 10° 05:15:31 10° 194° (SSW) 1,775 3.4 -18.6°
Maximum altitude 05:18:15 17° 152° (SSE) 1,385 3.3 -18.0°
Drops below altitude 10° 05:20:58 10° 111° (ESE) 1,780 4.7 -17.4°
Sets 05:23:50 0° 91° (E) 2,673 5.9 -16.8°
